Starlink 4061

operational
NORAD ID: 53247 Int'l Des: 2022-086 Owner: SPXS Country: US Constellation: starlink
LEOCIRCULAR

About Starlink 4061

Description loading...

Live Position

Loading 3D Globe...

Upcoming Passes

Altitude History

Altitude vs Time

uPlot chart will show altitude changes over time

Two-Line Element Set

1 53247U 22086F 26067.52607066 -.00000513 00000-0 -14145-4 0 9992
2 53247 53.2160 204.5262 0001392 92.8642 267.2509 15.08835041201130
Epoch: Mar 8, 2026 • Age: 17 hours

Current Status

Altitude 539.6 km
Velocity 7.60 km/s
Sub-Earth Point 15.64°N, 42.3°W
Launch Date Jul 24, 2022
Age 3.6 years
Type internet

Technical Details

Classification Payload
Mass 297.00 kg
Dry Mass 275.00 kg
Total Mass 297.00 kg
Length 0.20 m
Diameter 2.80 m
Span 9.00 m
Shape Box + pan
Manufacturer SPXS
Bus Type Starlink
Phase Status In Orbit
Owner/State SPXS/US

Large Constellations

Loading constellations...